Regional Weather Roundup
Issued by NWS Cleveland, OH

Home | Current Version | Previous Version | Text Only | Print | Product List | Glossary Off
Versions: 1 2 3 4 5 6 7 8 9 10 11 12 13 14 15 16 17 18 19 20 21 22 23 24 25 26 27 28 29 30 31 32 33 34 35 36 37 38 39 40 41 42 43 44 45 46 47 48 49 50

000
ASUS41 KCLE 230200
RWRCLE
OHIO REGIONAL WEATHER ROUNDUP
NATIONAL WEATHER SERVICE WILMINGTON, OH
1000 PM EDT MON SEP 22 2014

NOTE: "FAIR" INDICATES FEW OR NO CLOUDS BELOW 12,000 FEET WITH NO
SIGNIFICANT WEATHER AND/OR OBSTRUCTIONS TO VISIBILITY.

OHZ001>008-015>018-024>027-034-035-043-044-230300-
   NORTHWEST OHIO

CITY           SKY/WX    TMP DP  RH WIND       PRES   REMARKS
DEFIANCE       CLEAR    N/A N/A N/A CALM      30.26R
FINDLAY        CLEAR     53  43  68 CALM      30.24R
TOLEDO EXPRESS CLEAR     48  46  93 CALM      30.25R
TOLEDO METCALF CLEAR     54  42  64 CALM      30.26R
LIMA           CLEAR     49  44  83 CALM      30.25R
$$

OHZ009>014-019>023-028>033-038-089-230300-
   NORTHEAST OHIO

CITY           SKY/WX    TMP DP  RH WIND       PRES   REMARKS
CLE-HOPKINS    CLEAR     47  43  86 S6        30.28R
CLE-LAKEFRONT  CLEAR     52  43  71 S7        30.25R
CUY CO. ARPT   CLEAR     46  45  93 CALM      30.26S
LORAIN-ELYRIA  CLEAR     48  43  82 CALM      30.26S
ASHTABULA      CLEAR     45  43  93 CALM      30.26R
AKRON-CANTON   CLEAR     49  41  74 E3        30.27R
WOOSTER        NOT AVBL
MANSFIELD      CLEAR     48  42  80 CALM      30.26R
YOUNGSTOWN     PTCLDY    45  43  93 CALM      30.26R
$$

OHZ042-051>053-060>062-070>072-077>081-230300-
  SOUTHWEST OHIO

CITY           SKY/WX    TMP DP  RH WIND       PRES   REMARKS
CINC-COVINGTON CLEAR     50  42  74 CALM      30.25R
CINC-LUNKEN    CLEAR     48  46  93 CALM      30.27R
HAMILTON       CLEAR     47  46  97 CALM      30.26R
DAYTON         NOT AVBL
WRIGHT-PAT AFB CLEAR     52  43  71 E1        30.26R
DAYTON GENERAL CLEAR     53  43  68 CALM      30.24S
WILMINGTON     CLEAR     49  41  74 N3        30.25R
$$

OHZ036-037-039>041-045>050-054>059-063>069-073>076-082>088-230300-
  CENTRAL AND SOUTHEAST OHIO

CITY           SKY/WX    TMP DP  RH WIND       PRES   REMARKS
COLUMBUS       CLEAR     53  43  68 CALM      30.26R
OSU AIRPORT    CLEAR     51  40  65 NW3       30.26R
BOLTON FIELD   NOT AVBL
RICKENBACK AFB NOT AVBL
NEWARK         CLEAR     44  41  89 CALM      30.26R
MARION         CLEAR     50  42  74 CALM      30.26R
LANCASTER      CLEAR     45  41  86 CALM      30.27R
ZANESVILLE     CLEAR     49  43  80 CALM      30.26R
NEW PHILLY     CLEAR     44  41  89 CALM      30.28R
$$



USA.gov is the U.S. government's official web portal to all federal, state and local government web resources and services.